Regional Weather Roundup
Issued by NWS

Home | Current Version | Previous Version | Graphics & Text | Print | Product List | Glossary On
Versions: 1 2 3 4 5 6 7 8 9 10 11 12 13 14 15 16 17 18 19 20 21 22 23 24 25 26 27 28 29 30 31 32 33 34 35 36 37 38 39 40 41 42 43 44 45 46 47 48 49 50
000
ASUS43 KDMX 191201
RWRIA

WEATHER ROUNDUP FOR IOWA
NATIONAL WEATHER SERVICE DES MOINES IA
600 AM CST SUN FEB 19 2017

NOTE: "FAIR" INDICATES FEW OR NO CLOUDS BELOW 12,000 FEET WITH NO
SIGNIFICANT WEATHER AND/OR OBSTRUCTIONS TO VISIBILITY.

* - THESE STATIONS ARE NOT NWS STATIONS...THUS NOT UNDER NWS
QUALITY CONTROL.  THEY ALSO DO NOT REPORT WEATHER SUCH
AS PRECIPITATION OR FOG.

IAZ001>003-012>014-020>022-031>034-043>046-191300-
   NORTHWEST IOWA

CITY           SKY/WX    TMP DP  RH WIND       PRES   REMARKS
CARROLL *      CLOUDY    36  36 100 CALM      29.89R
CHEROKEE *     PTCLDY    38  34  84 S5        29.87R WCI  35
DENISON *      CLEAR     43  34  70 CALM      29.86R
LE MARS *      PTCLDY    41  34  75 S6        29.86R
SHELDON *      PTCLDY    37  37 100 SE8       29.83S WCI  31
SIOUX CITY     PTCLDY    39  32  76 E10       29.83S WCI  32
6HR MIN TEMP:  35; 6HR MAX TEMP:  39;

SPENCER        CLEAR     35  35 100 E6        29.87S FOG     WCI  30
6HR MIN TEMP:  30; 6HR MAX TEMP:  37;

STORM LAKE *   CLOUDY    37  34  87 SE12      29.87S WCI  30
$$

IAZ055>058-069>071-079>083-090>094-191300-
   SOUTHWEST IOWA

CITY           SKY/WX    TMP DP  RH WIND       PRES   REMARKS
ATLANTIC *     PTCLDY    34  32  93 CALM      29.90R
CLARINDA *       N/A     32  32 100 CALM      29.93R
COUNCIL BLFS * CLEAR     46  41  81 S8        29.88R
CRESTON *      PTCLDY    41  34  75 S5        29.93S
HARLAN  *      CLEAR     36  34  93 CALM      29.92R
LAMONI         CLOUDY    46  35  65 SE6       29.93R
6HR MIN TEMP:  40; 6HR MAX TEMP:  50;

RED OAK *      CLEAR     37  36  93 CALM      29.90S
SHENANDOAH *   CLEAR     37  37 100 CALM      29.91R
$$

IAZ047>049-059>061-072>074-084-191300-
   CENTRAL IOWA

CITY           SKY/WX    TMP DP  RH WIND       PRES   REMARKS
AMES           CLEAR     30  30 100 CALM      29.93R FOG
6HR MIN TEMP:  29; 6HR MAX TEMP:  36;

ANKENY *       CLEAR     36  34  93 CALM      29.95R
BOONE *        CLEAR     37  37 100 SE7       29.92R WCI  32
CHARITON *     CLEAR     39  32  75 S7        29.93R WCI  34
DES MOINES     CLEAR     41  33  73 SE7       29.94R
6HR MIN TEMP:  40; 6HR MAX TEMP:  47;

GRINNELL*      CLEAR     38  37  96 SE6       29.96R WCI  33
KNOXVILLE *    CLEAR     43  32  65 SE8       29.93R
MARSHALLTOWN   FOG       28  28 100 SE3       29.94R VSB 1/4
6HR MIN TEMP:  27; 6HR MAX TEMP:  33;

NEWTON *       PTCLDY    37  36  93 SE8       29.93R WCI  31
PELLA *        CLEAR     37  34  88 SE6       29.95R WCI  32
PERRY *          N/A     35  34  96 SE6       29.92R WCI  30
$$

IAZ004>006-015-016-023>025-035-036-191300-
   NORTH CENTRAL IOWA

CITY           SKY/WX    TMP DP  RH WIND       PRES   REMARKS
ALGONA *       CLEAR     41  41 100 SE10      29.91R
CLARION *      CLEAR     39  39 100 SE12      29.92R WCI  32
ESTHERVILLE    FOG       32  32 100 S8        29.89R VSB 1/4 WCI  25
6HR MIN TEMP:  31; 6HR MAX TEMP:  36;

FORT DODGE *   CLEAR     37  34  87 SE6       29.92R WCI  33
MASON CITY     FOG       30  29  96 S5        29.94R VSB 1/4 WCI  25
6HR MIN TEMP:  27; 6HR MAX TEMP:  32;

FOREST CITY *  FOG       30  27  86 CALM      29.93R VSB 1/2
IOWA FALLS *   FOG       32  32  99 SE3       29.94R VSB 1/4
$$

IAZ007>011-017>019-026>030-037>042-050>054-066-191300-
   NORTHEAST IOWA

CITY           SKY/WX    TMP DP  RH WIND       PRES   REMARKS
CEDAR RAPIDS   CLOUDY    29  29 100 S3        29.95R
6HR MIN TEMP:  29; 6HR MAX TEMP:  36;

CHARLES CITY * PTCLDY    32  32 100 E5        29.94R WCI  27
CLINTON *      CLOUDY    29  27  92 NE6       29.98R WCI  23
DECORAH *      CLOUDY    30  30 100 CALM      29.94R FOG
DUBUQUE        CLEAR     35  34  96 CALM      29.96R
6HR MIN TEMP:  32; 6HR MAX TEMP:  42;

MONTICELLO *   CLOUDY    27  27 100 CALM      29.96R
OELWEIN *      PTCLDY    34  34 100 SE6       29.95R WCI  29
WATERLOO       CLOUDY    26  24  92 CALM      29.95R FOG
6HR MIN TEMP:  25; 6HR MAX TEMP:  30;

$$

IAZ064-065-067-068-078-191300-
   EAST CENTRAL IOWA

CITY           SKY/WX    TMP DP  RH WIND       PRES   REMARKS
DAVENPORT      CLOUDY    32  30  92 NE3       29.97R FOG
6HR MIN TEMP:  29; 6HR MAX TEMP:  37;

IOWA CITY      CLOUDY    31  28  89 CALM      29.98R
6HR MIN TEMP:  30; 6HR MAX TEMP:  36;

MUSCATINE *    CLOUDY    30  27  86 CALM      29.98R
QUAD CITIES    CLOUDY    30  25  81 CALM      29.97R
6HR MIN TEMP:  28; 6HR MAX TEMP:  35;

$$

IAZ062-063-075>077-085>089-095>099-191300-
   SOUTHEAST IOWA

CITY           SKY/WX    TMP DP  RH WIND       PRES   REMARKS
BURLINGTON     CLOUDY    37  31  78 CALM      29.96R
6HR MIN TEMP:  35; 6HR MAX TEMP:  42;

FAIRFIELD *    CLOUDY    36  32  87 CALM      29.96R
KEOKUK *       CLEAR     36  34  93 E5        29.95R WCI  32
OTTUMWA        CLOUDY    42  35  76 E7        29.94R
6HR MIN TEMP:  32; 6HR MAX TEMP:  44;

WASHINGTON *   CLOUDY    36  34  93 E5        29.97R WCI  32
$$

ABBREVIATIONS USED IN REMARKS
   TC - TEMPERATURES IN CELSIUS
  WCI - WIND CHILL INDEX
   HX - HEAT INDEX
  VSB - VISIBILITY
$$




USA.gov is the U.S. government's official web portal to all federal, state and local government web resources and services.